Hourly Weather Ryabikovo

Today, 21 April, Wednesday

Time Temperature Precipitation Wind Pressure Humidity
00:00 +2°C° 0 mm 2 mps 736 mmHg 92%
01:00 +2°C° 0 mm 2 mps 735 mmHg 93%
02:00 +2°C° 0 mm 2 mps 735 mmHg 95%
03:00 +2°C° 0 mm 2 mps 734 mmHg 95%
04:00 +2°C° 0 mm 2 mps 734 mmHg 96%
05:00 +2°C° 0 mm 2 mps 733 mmHg 97%
06:00 +2°C° 0 mm 2 mps 733 mmHg 96%
07:00 +2°C° 0 mm 2 mps 733 mmHg 95%
08:00 +3°C° 0 mm 2 mps 733 mmHg 94%
09:00 +2°C° 0 mm 3 mps 733 mmHg 89%
10:00 +3°C° 0 mm 3 mps 733 mmHg 84%
11:00 +4°C° 0 mm 3 mps 733 mmHg 78%
12:00 +4°C° 0 mm 3 mps 733 mmHg 76%
13:00 +5°C° 0 mm 3 mps 733 mmHg 73%
14:00 +6°C° 0 mm 4 mps 733 mmHg 70%
15:00 +7°C° 0.1 mm 3 mps 733 mmHg 70%
16:00 +7°C° 0.1 mm 3 mps 733 mmHg 71%
17:00 +7°C° 0.1 mm 2 mps 734 mmHg 71%
18:00 +6°C° 0 mm 2 mps 734 mmHg 77%
19:00 +5°C° 0 mm 2 mps 734 mmHg 84%
20:00 +4°C° 0 mm 2 mps 735 mmHg 90%
21:00 +4°C° 0 mm 2 mps 735 mmHg 91%
22:00 +3°C° 0 mm 2 mps 735 mmHg 92%
23:00 +3°C° 0 mm 2 mps 735 mmHg 94%

Tomorrow, 22 April, Thursday

Time Temperature Precipitation Wind Pressure Humidity
00:00 +2°C° 0 mm 2 mps 735 mmHg 93%
01:00 +2°C° 0 mm 2 mps 735 mmHg 93%
02:00 +2°C° 0 mm 2 mps 735 mmHg 93%
03:00 +1°C° 0 mm 3 mps 735 mmHg 93%
04:00 +1°C° 0 mm 3 mps 736 mmHg 92%
05:00 +1°C° 0 mm 3 mps 736 mmHg 92%
06:00 +3°C° 0 mm 3 mps 736 mmHg 88%
07:00 +5°C° 0 mm 4 mps 736 mmHg 84%
08:00 +6°C° 0 mm 4 mps 736 mmHg 81%
09:00 +8°C° 0.2 mm 4 mps 736 mmHg 74%
10:00 +11°C° 0.2 mm 4 mps 736 mmHg 67%
11:00 +12°C° 0.2 mm 4 mps 736 mmHg 61%
12:00 +13°C° 0.4 mm 5 mps 736 mmHg 61%
13:00 +13°C° 0.4 mm 5 mps 736 mmHg 60%
14:00 +13°C° 0.4 mm 5 mps 736 mmHg 60%
15:00 +13°C° 0.5 mm 5 mps 736 mmHg 64%
16:00 +12°C° 0.5 mm 5 mps 736 mmHg 68%
17:00 +12°C° 0.5 mm 4 mps 736 mmHg 71%
18:00 +11°C° 0.2 mm 4 mps 736 mmHg 76%
19:00 +9°C° 0.2 mm 3 mps 736 mmHg 81%
20:00 +8°C° 0.2 mm 3 mps 736 mmHg 86%
21:00 +8°C° 0 mm 3 mps 736 mmHg 87%
22:00 +7°C° 0 mm 3 mps 736 mmHg 89%
23:00 +7°C° 0 mm 3 mps 736 mmHg 90%

Day after tomorrow, 23 April, Friday

Time Temperature Precipitation Wind Pressure Humidity
00:00 +6°C° 0.2 mm 4 mps 735 mmHg 91%
01:00 +6°C° 0.2 mm 4 mps 735 mmHg 91%
02:00 +7°C° 0.2 mm 4 mps 735 mmHg 92%
03:00 +6°C° 0.3 mm 4 mps 736 mmHg 91%
04:00 +6°C° 0.3 mm 4 mps 736 mmHg 91%
05:00 +5°C° 0.3 mm 4 mps 736 mmHg 90%
06:00 +5°C° 0.1 mm 3 mps 737 mmHg 89%
07:00 +4°C° 0.1 mm 3 mps 737 mmHg 89%
08:00 +3°C° 0.1 mm 3 mps 738 mmHg 88%
09:00 +4°C° 0.2 mm 3 mps 738 mmHg 84%
10:00 +4°C° 0.2 mm 3 mps 738 mmHg 79%
11:00 +5°C° 0.2 mm 3 mps 738 mmHg 75%
12:00 +7°C° 0.1 mm 3 mps 738 mmHg 68%
13:00 +8°C° 0.1 mm 3 mps 738 mmHg 62%
14:00 +9°C° 0.1 mm 3 mps 738 mmHg 56%
15:00 +8°C° 0.1 mm 3 mps 738 mmHg 59%
16:00 +8°C° 0.1 mm 2 mps 737 mmHg 61%
17:00 +8°C° 0.1 mm 2 mps 737 mmHg 64%
18:00 +7°C° 0 mm 2 mps 737 mmHg 70%
19:00 +6°C° 0 mm 2 mps 737 mmHg 75%
20:00 +5°C° 0 mm 2 mps 737 mmHg 81%
21:00 +6°C° 0.2 mm 1 mps 736 mmHg 81%
22:00 +6°C° 0.2 mm 1 mps 736 mmHg 82%
23:00 +6°C° 0.2 mm 1 mps 736 mmHg 82%

24 April, Saturday

Time Temperature Precipitation Wind Pressure Humidity
00:00 +5°C° 0.1 mm 1 mps 735 mmHg 84%
01:00 +5°C° 0.1 mm 1 mps 735 mmHg 87%
02:00 +5°C° 0.1 mm 1 mps 734 mmHg 89%
03:00 +4°C° 0.1 mm 1 mps 734 mmHg 89%
04:00 +4°C° 0.1 mm 1 mps 734 mmHg 89%
05:00 +4°C° 0.1 mm 1 mps 734 mmHg 89%
06:00 +4°C° 0.1 mm 2 mps 734 mmHg 85%
07:00 +4°C° 0.1 mm 2 mps 734 mmHg 82%
08:00 +3°C° 0.1 mm 3 mps 734 mmHg 79%
09:00 +4°C° 0.2 mm 3 mps 734 mmHg 73%
10:00 +5°C° 0.2 mm 3 mps 734 mmHg 66%
11:00 +5°C° 0.2 mm 3 mps 734 mmHg 60%
12:00 +5°C° 0.4 mm 4 mps 734 mmHg 61%
13:00 +5°C° 0.4 mm 4 mps 734 mmHg 61%
14:00 +5°C° 0.4 mm 5 mps 734 mmHg 61%
15:00 +5°C° 0.2 mm 5 mps 734 mmHg 63%
16:00 +4°C° 0.2 mm 4 mps 734 mmHg 65%
17:00 +4°C° 0.2 mm 4 mps 734 mmHg 66%
18:00 +3°C° 0 mm 4 mps 734 mmHg 72%
19:00 +2°C° 0 mm 3 mps 734 mmHg 77%
20:00 +1°C° 0 mm 2 mps 734 mmHg 82%
21:00 0°C° 0 mm 3 mps 734 mmHg 86%
22:00 0°C° 0 mm 3 mps 734 mmHg 90%
23:00 -1°C° 0 mm 3 mps 734 mmHg 94%

25 April, Sunday

Time Temperature Precipitation Wind Pressure Humidity
00:00 -1°C° 0.1 mm 3 mps 734 mmHg 93%
01:00 0°C° 0.1 mm 3 mps 734 mmHg 93%
02:00 0°C° 0.1 mm 3 mps 734 mmHg 93%
03:00 0°C° 0.2 mm 3 mps 734 mmHg 93%
04:00 0°C° 0.2 mm 3 mps 734 mmHg 94%
05:00 0°C° 0.2 mm 3 mps 734 mmHg 94%
06:00 0°C° 0.1 mm 3 mps 734 mmHg 88%
07:00 0°C° 0.1 mm 4 mps 734 mmHg 82%
08:00 +1°C° 0.1 mm 4 mps 734 mmHg 75%
09:00 +3°C° 0.2 mm 4 mps 734 mmHg 68%
10:00 +4°C° 0.2 mm 4 mps 734 mmHg 61%
11:00 +4°C° 0.2 mm 4 mps 734 mmHg 54%
12:00 +5°C° 0.1 mm 4 mps 734 mmHg 51%
13:00 +5°C° 0.1 mm 4 mps 734 mmHg 48%
14:00 +5°C° 0.1 mm 4 mps 734 mmHg 46%
15:00 +5°C° 0.1 mm 4 mps 734 mmHg 47%
16:00 +5°C° 0.1 mm 3 mps 734 mmHg 49%
17:00 +4°C° 0.1 mm 3 mps 734 mmHg 51%
18:00 +3°C° 0.1 mm 3 mps 734 mmHg 61%
19:00 +3°C° 0.1 mm 2 mps 734 mmHg 71%
20:00 +1°C° 0.1 mm 2 mps 734 mmHg 81%
21:00 +1°C° 0.1 mm 2 mps 734 mmHg 84%
22:00 -1°C° 0.1 mm 2 mps 734 mmHg 87%
23:00 -1°C° 0.1 mm 2 mps 734 mmHg 90%

26 April, Monday

Time Temperature Precipitation Wind Pressure Humidity
00:00 -1°C° 0 mm 2 mps 734 mmHg 91%
01:00 -2°C° 0 mm 2 mps 734 mmHg 92%
02:00 -2°C° 0 mm 2 mps 734 mmHg 93%
03:00 -2°C° 0 mm 2 mps 734 mmHg 93%
04:00 -2°C° 0 mm 2 mps 734 mmHg 93%
05:00 -2°C° 0 mm 2 mps 734 mmHg 93%
06:00 -1°C° 0 mm 3 mps 734 mmHg 88%
07:00 0°C° 0 mm 3 mps 734 mmHg 83%
08:00 +2°C° 0 mm 3 mps 735 mmHg 79%
09:00 +2°C° 0.1 mm 3 mps 735 mmHg 78%
10:00 +2°C° 0.1 mm 3 mps 735 mmHg 77%
11:00 +1°C° 0.1 mm 4 mps 735 mmHg 76%
12:00 +1°C° 0.1 mm 4 mps 735 mmHg 74%
13:00 +3°C° 0.1 mm 4 mps 735 mmHg 71%
14:00 +3°C° 0.1 mm 4 mps 735 mmHg 69%
15:00 +3°C° 0.1 mm 4 mps 735 mmHg 70%
16:00 +3°C° 0.1 mm 4 mps 735 mmHg 71%
17:00 +3°C° 0.1 mm 4 mps 735 mmHg 71%
18:00 +1°C° 0 mm 4 mps 734 mmHg 78%
19:00 0°C° 0 mm 4 mps 734 mmHg 84%
20:00 0°C° 0 mm 3 mps 734 mmHg 90%
21:00 0°C° 0 mm 3 mps 734 mmHg 91%
22:00 0°C° 0 mm 3 mps 734 mmHg 92%
23:00 0°C° 0 mm 3 mps 734 mmHg 93%
Show more